EW3665 Weather Reports


time (UTC)temp
C
wind
direction
speed
KPH
gust
KPH
rain 1hr
cm
rain 24hr
cm
rain mn
cm
humidity
%
barometer
mb
20260506231506 28 360 3.2 14.5 0.00 0.00 0.00 69 1009.6
20260506230004 29 61 4.8 11.3 0.00 0.00 0.00 68 1009.4
20260506224505 29 19 6.4 17.7 0.00 0.00 0.00 67 1009.3
20260506223105 30 84 6.4 17.7 0.00 0.00 0.00 65 1009.3
20260506221558 30 32 3.2 17.7 0.00 0.00 0.00 65 1009.1
20260506220108 30 56 8.0 17.7 0.00 0.00 0.00 65 1008.8
20260506214556 30 98 8.0 24.1 0.00 0.00 0.00 65 1008.7
20260506213038 31 57 6.4 22.5 0.00 0.00 0.00 64 1008.7
20260506211545 31 71 8.0 20.9 0.00 0.00 0.00 64 1008.4
20260506210025 31 26 8.0 25.7 0.00 0.00 0.00 65 1008.4
20260506204525 31 78 11.3 32.2 0.00 0.00 0.00 64 1008.4
20260506203025 31 108 11.3 24.1 0.00 0.00 0.00 61 1008.4
20260506201521 32 19 11.3 25.7 0.00 0.00 0.00 61 1008.3
20260506200017 -17 0.0 0.0 0.00 0.00 0.00 1008.3
20260506194615 -17 0.0 0.0 0.00 0.00 0.00 1008.4
20260506193008 -17 0.0 0.0 0.00 0.00 0.00 1008.3
20260506191504 -17 0.0 0.0 0.00 0.00 0.00 1008.5
20260506190043 -17 0.0 0.0 0.00 0.00 0.00 1008.6
20260506184539 -17 0.0 0.0 0.00 0.00 0.00 1008.7
20260506183021 -17 0.0 0.0 0.00 0.00 0.00 1008.9
20260506181517 -17 0.0 0.0 0.00 0.00 0.00 1009.2
20260506180012 -17 0.0 0.0 0.00 0.00 0.00 1009.3
20260506174508 -17 0.0 0.0 0.00 0.00 0.00 1009.7
20260506173004 -17 0.0 0.0 0.00 0.00 0.00 1009.9
20260506171606 -17 0.0 0.0 0.00 0.00 0.00 1010.1
20260506170104 -17 0.0 0.0 0.00 0.00 0.00 1010.4
20260506164552 -17 0.0 0.0 0.00 0.00 0.00 1010.8
20260506163035 -17 0.0 0.0 0.00 0.00 0.00 1011.1
20260506161532 -17 0.0 0.0 0.00 0.00 0.00 1011.5
20260506160036 -17 0.0 0.0 0.00 0.00 0.00 1011.7
20260506154524 -17 0.0 0.0 0.00 0.08 0.00 1011.9
20260506153117 -17 0.0 0.0 0.00 0.08 0.00 1012.1
20260506151515 -17 0.0 0.0 0.00 0.08 0.00 1012.3
20260506150008 -17 0.0 0.0 0.00 0.08 0.00 1012.6
20260506144503 -17 0.0 0.0 0.00 0.08 0.00 1012.8
20260506143042 -17 0.0 0.0 0.00 0.08 0.00 1012.9
20260506141538 -17 0.0 0.0 0.00 0.08 0.00 1013.1
20260506134522 30 84 4.8 17.7 0.00 0.08 0.08 68 1013.3
20260506133017 29 84 3.2 12.9 0.00 0.08 0.08 71 1013.5
20260506131536 28 157 4.8 16.1 0.00 0.08 0.08 72 1013.5
20260506130027 28 87 3.2 9.7 0.00 0.08 0.08 72 1013.4
20260506124516 28 88 3.2 11.3 0.00 0.08 0.08 73 1013.4
20260506123015 27 149 4.8 12.9 0.00 0.08 0.08 76 1013.2
20260506121515 27 44 4.8 11.3 0.00 0.08 0.08 78 1013.0
20260506120007 26 43 4.8 12.9 0.00 0.08 0.08 81 1012.9
20260506114502 26 66 6.4 16.1 0.00 0.08 0.08 81 1013.0
20260506113001 26 64 1.6 9.7 0.00 0.08 0.08 84 1012.8
20260506111600 26 69 3.2 9.7 0.00 0.08 0.08 85 1012.7
20260506110104 25 85 1.6 8.0 0.00 0.08 0.08 88 1012.5
20260506104558 25 73 1.6 4.8 0.00 0.08 0.08 90 1012.4
20260506103057 24 65 0.0 3.2 0.00 0.08 0.08 91 1012.1
20260506101556 24 360 0.0 3.2 0.00 0.08 0.08 91 1011.9
20260506100044 24 63 0.0 0.0 0.00 0.08 0.08 91 1011.9
20260506094554 24 63 0.0 3.2 0.00 0.08 0.08 90 1011.9
20260506093042 24 63 0.0 3.2 0.00 0.08 0.08 90 1011.8
20260506091543 24 63 0.0 1.6 0.00 0.08 0.08 90 1011.7
20260506090043 25 63 0.0 3.2 0.00 0.08 0.08 89 1011.6
20260506084543 25 63 0.0 6.4 0.00 0.08 0.08 89 1011.3
20260506083040 25 65 0.0 6.4 0.00 0.08 0.08 89 1011.3
20260506081539 25 49 1.6 6.4 0.00 0.08 0.08 89 1011.2
20260506073009 25 47 0.0 6.4 0.00 0.08 0.08 87 1011.2
20260506071511 25 42 1.6 8.0 0.00 0.08 0.08 87 1011.3
20260506061506 25 41 1.6 8.0 0.00 0.08 0.08 86 1011.0
20260506044559 25 68 0.0 12.9 0.00 0.08 0.08 84 1011.8
20260506043049 25 63 1.6 6.4 0.00 0.08 0.08 84 1011.8
20260506041550 26 56 3.2 8.0 0.00 0.08 0.08 83 1011.8
20260506040048 26 53 3.2 11.3 0.00 0.08 0.08 83 1011.7
20260506034548 26 61 1.6 8.0 0.00 0.08 0.08 82 1011.8
20260506033037 26 102 0.0 8.0 0.00 0.08 0.08 82 1011.9
20260506031537 26 28 1.6 4.8 0.00 0.08 0.08 82 1012.1
20260506030038 26 92 4.8 11.3 0.00 0.08 0.08 81 1012.2
20260506024545 26 43 1.6 14.5 0.00 0.08 0.08 81 1012.2
20260506023035 26 61 3.2 9.7 0.00 0.08 0.08 81 1012.2
20260506021534 26 61 4.8 9.7 0.00 0.08 0.08 81 1012.1
20260506020033 26 52 4.8 11.3 0.00 0.08 0.08 81 1012.2
20260506014536 27 22 4.8 14.5 0.00 0.08 0.08 81 1012.1
20260506013035 27 86 3.2 12.9 0.00 0.08 0.08 81 1011.9
20260506011513 26 176 3.2 19.3 0.00 0.08 0.08 81 1011.5
20260506010013 26 71 4.8 14.5 0.00 0.08 0.08 81 1011.3
20260506004600 26 126 4.8 14.5 0.00 0.08 0.08 81 1011.0
20260506003059 27 98 4.8 17.7 0.00 0.08 0.08 81 1010.7
20260506001608 27 117 1.6 14.5 0.00 0.08 0.08 81 1010.6
20260506000055 27 73 6.4 16.1 0.00 0.08 0.08 80 1010.2
20260505234556 27 98 4.8 19.3 0.00 0.08 0.08 80 1010.0
20260505233053 27 78 4.8 14.5 0.00 0.08 0.08 79 1009.8